Comisión Nacional del Agua
Subdirección General Técnica
Estación: Ahuatempan
Clave: C21165
Estado: Puebla
Municipio: Santa Inés Ahuatempan

Fecha, Precipitación(mm), Temperatura Media(ºC), Temperatura Máxima(ºC), Temperatura Mínima(ºC), Evaporación(mm)
1979/09/01,0.00,21.50,29.00,14.00,7.70
1979/09/02,0.00,20.00,27.00,13.00,5.70
1979/09/03,0.00,19.00,26.00,12.00,6.40
1979/09/04,0.00,19.00,24.00,14.00,4.70
1979/09/05,19.60,18.50,23.00,14.00,1.50
1979/09/06,8.00,18.00,22.00,14.00,3.10
1979/09/07,5.50,18.50,22.00,15.00,4.60
1979/09/08,2.50,18.00,22.00,14.00,6.70
1979/09/09,7.40,18.50,23.00,14.00,6.50
1979/09/10,11.00,18.00,21.00,15.00,4.90
1979/09/11,0.00,18.00,23.00,13.00,5.10
1979/09/12,6.50,18.00,22.00,14.00,3.30
1979/09/13,0.00,18.00,24.00,12.00,5.90
1979/09/14,3.00,19.00,23.00,15.00,5.00
1979/09/15,0.00,18.50,25.00,12.00,5.80
1979/09/16,0.00,18.00,22.00,14.00,4.40
1979/09/17,9.20,15.00,17.00,13.00,2.50
1979/09/18,6.00,14.50,18.00,11.00,3.50
1979/09/19,20.00,16.00,22.00,10.00,3.00
1979/09/20,11.00,18.00,22.00,14.00,5.70
1979/09/21,3.00,18.00,23.00,13.00,4.60
1979/09/22,0.00,15.50,19.00,12.00,3.70
1979/09/23,0.00,19.00,24.00,14.00,5.40
1979/09/24,0.00,18.00,25.00,11.00,5.90
1979/09/25,0.00,17.00,23.00,11.00,5.60
1979/09/26,0.00,16.00,24.00,8.00,5.00
1979/09/27,0.00,16.50,23.00,10.00,3.80
1979/09/28,0.00,17.50,24.00,11.00,4.90
1979/09/29,0.00,18.00,25.00,11.00,6.40
1979/09/30,0.00,18.00,26.00,10.00,5.60
1979/10/01,0.00,16.50,25.00,8.00,5.70
1979/10/02,0.00,17.00,25.00,9.00,5.90
1979/10/03,0.00,15.50,21.00,10.00,5.60
1979/10/04,0.00,18.50,25.00,12.00,5.90
1979/10/05,0.00,17.50,24.00,11.00,5.70
1979/10/06,0.00,20.00,28.00,12.00,7.30
1979/10/07,0.00,18.00,26.00,10.00,7.80
1979/10/08,0.00,17.50,25.00,10.00,4.90
1979/10/09,0.00,18.50,26.00,11.00,5.40
1979/10/10,0.00,19.00,26.00,12.00,6.70
1979/10/11,0.00,18.50,26.00,11.00,5.30
1979/10/12,0.00,19.00,26.00,12.00,6.70
1979/10/13,0.00,20.00,27.00,13.00,6.80
1979/10/14,0.00,18.00,26.00,10.00,6.10
1979/10/15,0.00,16.50,22.00,11.00,4.20
1979/10/16,0.00,19.50,27.00,12.00,5.50
1979/10/17,0.00,19.50,28.00,11.00,7.60
1979/10/18,0.00,20.00,28.00,12.00,6.50
1979/10/19,0.00,15.50,22.00,9.00,4.10
1979/10/20,0.00,19.00,27.00,11.00,6.60
1979/10/21,0.00,20.50,27.00,14.00,6.50
1979/10/22,0.00,21.50,29.00,14.00,7.20
1979/10/23,0.00,19.00,25.00,13.00,5.20
1979/10/24,0.00,18.00,24.00,12.00,4.70
1979/10/25,0.00,19.00,25.00,13.00,4.90
1979/10/26,8.10,18.00,24.00,12.00,5.30
1979/10/27,4.00,16.50,19.00,14.00,3.60
1979/10/28,0.00,18.50,24.00,13.00,5.60
1979/10/29,2.70,19.00,24.00,14.00,3.00
1979/10/30,7.00,15.00,17.00,13.00,3.00
1979/10/31,0.00,14.00,18.00,10.00,3.30
1979/11/01,0.00,19.00,26.00,12.00,5.60
1979/11/02,0.00,18.00,25.00,11.00,5.40
1979/11/03,0.00,18.00,24.00,12.00,4.90
1979/11/04,0.00,16.00,22.00,10.00,4.40
1979/11/05,0.00,17.00,25.00,9.00,5.90
1979/11/06,0.00,13.50,18.00,9.00,4.20
1979/11/07,0.00,15.50,23.00,8.00,5.50
1979/11/08,0.00,17.00,23.00,11.00,5.10
1979/11/09,0.00,15.50,19.00,12.00,4.60
1979/11/10,0.00,18.50,25.00,12.00,5.60
1979/11/11,0.00,19.00,25.00,13.00,5.60
1979/11/12,0.00,17.50,22.00,13.00,5.50
1979/11/13,0.00,18.00,24.00,12.00,5.90
1979/11/14,0.00,13.00,19.00,7.00,4.80
1979/11/15,0.00,13.00,19.00,7.00,4.90
1979/11/16,0.00,14.50,22.00,7.00,3.80
1979/11/17,0.00,15.00,23.00,7.00,4.70
1979/11/18,0.00,16.00,22.00,10.00,5.30
1979/11/19,0.00,16.50,20.00,13.00,4.90
1979/11/20,0.00,19.00,26.00,12.00,6.10
1979/11/21,0.00,18.00,23.00,13.00,4.90
1979/11/22,0.00,19.00,26.00,12.00,5.70
1979/11/23,0.00,20.50,28.00,13.00,6.10
1979/11/24,0.40,19.00,24.00,14.00,5.20
1979/11/25,0.00,17.50,24.00,11.00,5.20
1979/11/26,0.00,16.00,20.00,12.00,4.80
1979/11/27,0.00,18.50,24.00,13.00,4.70
1979/11/28,0.00,17.00,22.00,12.00,4.00
1979/11/29,0.00,16.50,20.00,13.00,3.80
1979/11/30,0.00,17.00,23.00,11.00,3.90
1979/12/01,0.00,15.50,23.00,8.00,4.30
1979/12/02,0.00,16.00,20.00,12.00,3.90
1979/12/03,0.00,16.50,22.00,11.00,3.90
1979/12/04,12.00,17.50,23.00,12.00,2.20
1979/12/05,0.00,13.00,21.00,5.00,3.70
1979/12/06,0.00,15.00,20.00,10.00,3.90
1979/12/07,0.00,13.50,18.00,9.00,2.50
1979/12/08,0.00,14.00,23.00,5.00,3.90
1979/12/09,0.00,14.00,18.00,10.00,2.40
1979/12/10,0.00,12.50,14.00,11.00,1.70
1979/12/11,0.00,14.50,25.00,4.00,4.50
1979/12/12,0.00,14.50,20.00,9.00,3.50
1979/12/13,0.00,15.00,22.00,8.00,4.10
1979/12/14,0.00,15.50,19.00,12.00,3.60
1979/12/15,0.00,14.50,24.00,5.00,4.10
1979/12/16,0.00,17.00,26.00,8.00,6.00
1979/12/17,0.00,16.00,20.00,12.00,3.90
1979/12/18,0.00,13.00,20.00,6.00,3.10
1979/12/19,0.00,15.00,23.00,7.00,3.60
1979/12/20,0.00,18.00,25.00,11.00,5.50
1979/12/21,0.00,18.50,25.00,12.00,5.70
1979/12/22,0.00,18.50,24.00,13.00,4.00
1979/12/23,0.00,18.00,24.00,12.00,4.10
1979/12/24,0.00,18.50,24.00,13.00,4.20
1979/12/25,0.00,14.50,21.00,8.00,3.80
1979/12/26,0.00,16.50,24.00,9.00,4.90
1979/12/27,0.00,17.50,24.00,11.00,4.80
1979/12/28,0.00,18.00,24.00,12.00,4.70
1979/12/29,0.00,18.00,25.00,11.00,5.10
1979/12/30,0.00,16.00,23.00,9.00,3.70
1979/12/31,0.00,16.00,22.00,10.00,3.40
1980/01/01,0.00,11.00,15.00,7.00,2.60
1980/01/02,0.00,14.50,21.00,8.00,4.70
1980/01/03,0.00,15.50,21.00,10.00,4.60
1980/01/04,0.00,16.50,24.00,9.00,4.80
1980/01/05,0.00,15.00,23.00,7.00,4.90
1980/01/06,0.00,16.50,22.00,11.00,4.40
1980/01/07,0.00,16.50,21.00,12.00,4.30
1980/01/08,0.00,17.50,23.00,12.00,4.40
1980/01/09,0.00,16.00,21.00,11.00,4.40
1980/01/10,0.00,14.50,23.00,6.00,5.30
1980/01/11,0.00,18.00,26.00,10.00,5.40
1980/01/12,0.00,17.50,23.00,12.00,4.70
1980/01/13,0.00,17.50,24.00,11.00,6.00
1980/01/14,0.00,16.00,19.00,13.00,4.20
1980/01/15,0.00,15.50,24.00,7.00,5.10
1980/01/16,0.00,17.50,24.00,11.00,5.20
1980/01/17,0.00,15.50,20.00,11.00,4.80
1980/01/18,0.00,17.00,24.00,10.00,5.20
1980/01/19,0.00,17.00,23.00,11.00,5.10
1980/01/20,0.00,16.50,23.00,10.00,5.30
1980/01/21,0.00,16.00,22.00,10.00,4.90
1980/01/22,0.00,17.00,23.00,11.00,4.80
1980/01/23,0.00,16.50,22.00,11.00,4.60
1980/01/24,0.50,12.00,14.00,10.00,2.40
1980/01/25,11.00,14.50,19.00,10.00,4.20
1980/01/26,18.00,12.00,15.00,9.00,1.80
1980/01/27,13.00,15.00,22.00,8.00,4.30
1980/01/28,0.00,14.00,18.00,10.00,3.90
1980/01/29,0.00,15.00,20.00,10.00,4.90
1980/01/30,0.00,18.50,26.00,11.00,5.70
1980/01/31,0.00,15.50,21.00,10.00,5.00
1980/02/01,0.00,15.00,21.00,9.00,4.10
1980/02/02,0.00,17.00,23.00,11.00,4.40
1980/02/03,0.00,15.00,20.00,10.00,3.90
1980/02/04,0.00,12.50,16.00,9.00,3.30
1980/02/05,0.00,15.50,23.00,8.00,4.90
1980/02/06,0.00,14.00,21.00,7.00,5.00
1980/02/07,0.00,15.50,23.00,8.00,5.20
1980/02/08,0.00,16.50,23.00,10.00,4.00
1980/02/09,0.00,19.00,24.00,14.00,3.90
1980/02/10,0.00,15.50,20.00,11.00,3.80
1980/02/11,0.00,12.50,19.00,6.00,3.20
1980/02/12,0.00,18.00,24.00,12.00,4.30
1980/02/13,0.00,18.50,25.00,12.00,5.00
1980/02/14,0.00,19.50,28.00,11.00,5.10
1980/02/15,0.00,17.00,23.00,11.00,4.90
1980/02/16,0.00,20.00,28.00,12.00,5.20
1980/02/17,0.00,16.00,19.00,13.00,3.10
1980/02/18,0.00,15.50,19.00,12.00,3.50
1980/02/19,0.00,19.00,26.00,12.00,5.10
1980/02/20,0.00,20.50,27.00,14.00,4.30
1980/02/21,0.00,19.50,27.00,12.00,4.10
1980/02/22,0.00,19.50,26.00,13.00,5.50
1980/02/23,0.00,19.50,26.00,13.00,5.60
1980/02/24,0.00,17.50,21.00,14.00,4.80
1980/02/25,0.00,16.50,21.00,12.00,4.90
1980/02/26,0.00,14.50,19.00,10.00,3.70
1980/02/27,0.00,15.00,23.00,7.00,5.50
1980/02/28,0.00,17.00,24.00,10.00,5.40
1980/02/29,0.00,18.00,24.00,12.00,5.70
1980/03/01,0.00,17.00,24.00,10.00,5.50
1980/03/02,0.00,17.00,25.00,9.00,5.70
1980/03/03,0.00,18.00,24.00,12.00,4.90
1980/03/04,0.00,13.50,20.00,7.00,4.00
1980/03/05,0.00,18.00,26.00,10.00,5.60
1980/03/06,0.00,18.00,23.00,13.00,5.20
1980/03/07,0.00,18.00,23.00,13.00,5.10
1980/03/08,0.00,19.00,26.00,12.00,5.60
1980/03/09,0.00,23.50,32.00,15.00,7.30
1980/03/10,0.00,21.00,30.00,12.00,7.00
1980/03/11,0.00,19.50,25.00,14.00,5.40
1980/03/12,0.00,23.50,31.00,16.00,7.30
1980/03/13,0.00,16.00,22.00,10.00,4.10
1980/03/14,0.00,20.50,29.00,12.00,6.60
1980/03/15,0.00,15.00,18.00,12.00,3.40
1980/03/16,0.00,19.00,25.00,13.00,5.20
1980/03/17,0.00,18.00,24.00,12.00,5.10
1980/03/18,0.00,16.50,22.00,11.00,4.40
1980/03/19,0.00,19.00,25.00,13.00,4.80
1980/03/20,0.00,19.00,24.00,14.00,5.00
1980/03/21,0.00,17.50,25.00,10.00,5.70
1980/03/22,0.00,21.00,28.00,14.00,7.00
1980/03/23,0.00,22.00,30.00,14.00,7.30
1980/03/24,0.00,22.50,29.00,16.00,6.80
1980/03/25,0.00,21.00,28.00,14.00,6.60
1980/03/26,0.00,22.00,29.00,15.00,6.40
1980/03/27,0.00,21.00,28.00,14.00,6.60
1980/03/28,0.00,21.00,29.00,13.00,6.60
1980/03/29,0.00,22.00,30.00,14.00,6.80
1980/03/30,0.00,20.00,25.00,15.00,5.20
1980/03/31,0.00,19.50,27.00,12.00,5.90
1980/04/01,0.00,20.00,24.00,16.00,5.50
1980/04/02,0.00,23.50,32.00,15.00,8.90
1980/04/03,0.00,21.50,30.00,13.00,7.90
1980/04/04,0.00,24.00,32.00,16.00,8.00
1980/04/05,0.00,21.50,30.00,13.00,7.00
1980/04/06,0.00,21.50,30.00,13.00,7.00
1980/04/07,39.00,19.00,24.00,14.00,3.30
1980/04/08,0.00,18.00,24.00,12.00,5.60
1980/04/09,0.00,19.50,26.00,13.00,8.00
1980/04/10,50.00,19.00,27.00,11.00,5.90
1980/04/11,0.00,19.00,27.00,11.00,5.80
1980/04/12,0.00,19.00,25.00,13.00,4.80
1980/04/13,0.00,20.50,27.00,14.00,5.80
1980/04/14,0.00,19.00,26.00,12.00,6.10
1980/04/15,0.00,20.50,27.00,14.00,6.20
1980/04/16,0.00,20.00,27.00,13.00,6.30
1980/04/17,0.00,18.50,24.00,13.00,5.40
1980/04/18,0.00,18.00,24.00,12.00,5.20
1980/04/19,0.00,19.00,25.00,13.00,5.50
1980/04/20,0.00,16.50,21.00,12.00,4.70
1980/04/21,0.00,17.50,24.00,11.00,5.00
1980/04/22,0.00,19.50,26.00,13.00,5.20
1980/04/23,0.00,21.00,28.00,14.00,6.90
1980/04/24,0.00,19.00,23.00,15.00,5.20
1980/04/25,0.00,20.00,25.00,15.00,6.70
1980/04/26,0.00,21.50,29.00,14.00,7.70
1980/04/27,0.00,22.00,29.00,15.00,8.00
1980/04/28,0.00,20.00,26.00,14.00,7.70
1980/04/29,0.00,22.50,30.00,15.00,8.20
1980/04/30,0.00,20.50,27.00,14.00,7.70
1980/05/01,0.00,21.00,27.00,15.00,5.30
1980/05/02,0.00,21.50,27.00,16.00,5.90
1980/05/03,0.00,21.50,28.00,15.00,5.30
1980/05/04,18.50,21.00,29.00,13.00,6.00
1980/05/05,0.00,20.00,27.00,13.00,4.00
1980/05/06,0.00,20.50,28.00,13.00,5.30
1980/05/07,0.00,21.50,29.00,14.00,8.40
1980/05/08,0.00,22.50,29.00,16.00,10.00
1980/05/09,11.00,22.50,29.00,16.00,7.80
1980/05/10,0.00,22.50,29.00,16.00,8.40
1980/05/11,0.00,23.00,30.00,16.00,6.90
1980/05/12,0.00,19.00,25.00,13.00,7.30
1980/05/13,10.80,22.50,31.00,14.00,7.70
1980/05/14,0.00,21.50,28.00,15.00,7.90
1980/05/15,0.00,23.00,30.00,16.00,7.80
1980/05/16,0.00,23.50,31.00,16.00,8.10
1980/05/17,0.00,23.50,30.00,17.00,7.40
1980/05/18,12.00,24.00,31.00,17.00,7.70
1980/05/19,0.00,21.50,28.00,15.00,7.20
1980/05/20,10.50,22.00,29.00,15.00,6.90
1980/05/21,0.60,21.00,28.00,14.00,8.00
1980/05/22,0.00,21.50,28.00,15.00,6.10
1980/05/23,0.00,22.50,29.00,16.00,5.90
1980/05/24,0.00,22.50,29.00,16.00,5.80
1980/05/25,101.00,20.50,27.00,14.00,-
1980/05/26,0.00,18.00,23.00,13.00,6.00
1980/05/27,5.90,18.00,23.00,13.00,7.00
1980/05/28,0.00,21.00,29.00,13.00,6.60
1980/05/29,0.00,22.00,29.00,15.00,7.60
1980/05/30,0.00,21.50,29.00,14.00,7.80
1980/05/31,0.00,22.00,29.00,15.00,8.00
1980/06/01,0.00,21.00,29.00,13.00,7.50
1980/06/02,0.00,20.50,28.00,13.00,6.80
1980/06/03,0.00,19.00,23.00,15.00,4.10
1980/06/04,0.00,19.50,25.00,14.00,5.20
1980/06/05,0.00,19.00,25.00,13.00,5.90
1980/06/06,0.00,21.50,28.00,15.00,6.70
1980/06/07,0.00,22.50,30.00,15.00,7.60
1980/06/08,0.00,20.50,28.00,13.00,7.90
1980/06/09,0.00,19.50,27.00,12.00,6.60
1980/06/10,0.00,19.00,27.00,11.00,6.60
1980/06/11,0.00,20.50,29.00,12.00,7.90
1980/06/12,0.00,20.00,28.00,12.00,7.50
1980/06/13,0.00,20.00,27.00,13.00,6.40
1980/06/14,0.00,18.00,24.00,12.00,4.60
1980/06/15,0.00,18.00,23.00,13.00,4.50
1980/06/16,26.50,16.00,19.00,13.00,2.30
1980/06/17,7.50,20.50,29.00,12.00,6.00
1980/06/18,30.50,20.50,27.00,14.00,6.40
1980/06/19,26.70,19.00,23.00,15.00,2.70
1980/06/20,44.00,19.00,23.00,15.00,2.50
1980/06/21,2.30,18.50,23.00,14.00,3.80
1980/06/22,2.90,19.50,25.00,14.00,3.90
1980/06/23,0.00,17.00,20.00,14.00,3.70
1980/06/24,3.00,16.00,18.00,14.00,2.20
1980/06/25,0.00,20.00,25.00,15.00,5.00
1980/06/26,0.50,19.00,24.00,14.00,4.40
1980/06/27,0.00,18.50,23.00,14.00,4.80
1980/06/28,0.50,19.00,25.00,13.00,5.00
1980/06/29,0.00,20.00,28.00,12.00,6.90
1980/06/30,0.00,19.50,25.00,14.00,5.10
1980/07/01,0.00,19.00,24.00,14.00,5.40
1980/07/02,0.00,19.00,24.00,14.00,4.90
1980/07/03,0.00,20.00,28.00,12.00,4.90
1980/07/04,0.00,17.50,23.00,12.00,5.10
1980/07/05,0.00,17.50,22.00,13.00,5.60
1980/07/06,7.00,18.00,22.00,14.00,5.90
1980/07/07,0.00,18.00,24.00,12.00,4.40
1980/07/08,0.00,16.50,21.00,12.00,5.00
1980/07/09,0.00,18.50,24.00,13.00,5.20
1980/07/10,0.00,18.50,26.00,11.00,6.10
1980/07/11,0.00,15.00,19.00,11.00,4.20
1980/07/12,0.00,17.50,24.00,11.00,5.00
1980/07/13,0.00,20.50,29.00,12.00,7.20
1980/07/14,0.90,19.50,26.00,13.00,7.40
1980/07/15,0.00,19.50,26.00,13.00,5.00
1980/07/16,0.00,17.50,23.00,12.00,5.30
1980/07/17,32.00,17.50,23.00,12.00,5.40
1980/07/18,8.00,15.50,19.00,12.00,5.10
1980/07/19,0.00,18.00,24.00,12.00,6.20
1980/07/20,4.40,19.50,24.00,15.00,5.70
1980/07/21,0.00,19.50,25.00,14.00,5.00
1980/07/22,0.00,19.50,26.00,13.00,5.60
1980/07/23,0.00,19.50,26.00,13.00,5.90
1980/07/24,0.60,21.00,27.00,15.00,6.40
1980/07/25,0.00,20.00,25.00,15.00,6.20
1980/07/26,28.80,20.00,26.00,14.00,6.40
1980/07/27,11.10,19.00,24.00,14.00,5.00
1980/07/28,0.00,20.00,26.00,14.00,5.10
1980/07/29,0.00,19.00,24.00,14.00,5.40
1980/07/30,0.00,18.50,24.00,13.00,7.00
1980/07/31,0.00,18.50,25.00,12.00,6.70
1980/08/01,0.60,19.50,25.00,14.00,5.70
1980/08/02,0.00,19.50,26.00,13.00,4.00
1980/08/03,11.00,16.50,21.00,12.00,5.40
1980/08/04,0.50,20.00,26.00,14.00,5.10
1980/08/05,5.30,17.50,24.00,11.00,4.10
1980/08/06,20.00,18.50,23.00,14.00,5.70
1980/08/07,7.00,18.50,23.00,14.00,5.40
1980/08/08,29.00,18.00,22.00,14.00,5.50
1980/08/09,0.00,19.00,23.00,15.00,4.40
1980/08/10,0.00,18.00,20.00,16.00,4.40
1980/08/11,13.50,17.00,24.00,10.00,5.10
1980/08/12,0.00,19.50,25.00,14.00,6.00
1980/08/13,2.00,19.50,25.00,14.00,6.00
1980/08/14,0.00,19.50,25.00,14.00,4.00
1980/08/15,16.00,21.00,27.00,15.00,6.20
1980/08/16,1.10,18.00,23.00,13.00,5.20
1980/08/17,14.00,18.50,23.00,14.00,5.60
1980/08/18,0.00,17.50,23.00,12.00,5.60
1980/08/19,0.00,16.50,21.00,12.00,4.70
1980/08/20,0.00,15.00,19.00,11.00,5.00
1980/08/21,0.00,17.50,23.00,12.00,5.10
1980/08/22,0.00,17.00,20.00,14.00,6.20
1980/08/23,0.00,19.00,25.00,13.00,6.50
1980/08/24,0.00,19.00,25.00,13.00,5.10
1980/08/25,2.00,19.50,25.00,14.00,6.00
1980/08/26,10.00,18.00,25.00,11.00,5.30
1980/08/27,0.00,18.50,25.00,12.00,5.70
1980/08/28,0.00,16.50,20.00,13.00,4.60
1980/08/29,0.00,17.00,21.00,13.00,5.10
1980/08/30,0.20,18.50,23.00,14.00,5.10
1980/08/31,28.00,18.50,23.00,14.00,4.90
1980/09/01,8.80,18.00,22.00,14.00,6.00
1980/09/02,17.30,17.00,22.00,12.00,6.70
1980/09/03,44.00,18.50,23.00,14.00,5.90
1980/09/04,1.70,16.50,20.00,13.00,5.80
1980/09/05,0.00,19.00,23.00,15.00,6.50
1980/09/06,0.00,17.00,22.00,12.00,6.90
1980/09/07,0.00,18.00,26.00,10.00,6.60
1980/09/08,0.00,19.50,24.00,15.00,5.50
1980/09/09,2.60,19.50,25.00,14.00,5.80
1980/09/10,0.00,19.00,24.00,14.00,4.20
1980/09/11,0.00,19.50,25.00,14.00,5.20
1980/09/12,0.00,19.50,25.00,14.00,6.10
1980/09/13,0.00,19.00,25.00,13.00,6.00
1980/09/14,0.00,18.50,24.00,13.00,6.00
1980/09/15,0.00,17.50,23.00,12.00,5.60
1980/09/16,7.00,19.50,26.00,13.00,5.90
1980/09/17,0.00,17.00,21.00,13.00,5.20
1980/09/18,9.50,17.00,21.00,13.00,5.00
1980/09/19,2.00,16.50,21.00,12.00,4.50
1980/09/20,0.00,18.50,23.00,14.00,5.40
1980/09/21,4.50,18.00,22.00,14.00,5.10
1980/09/22,0.00,17.00,21.00,13.00,5.10
1980/09/23,1.20,18.50,23.00,14.00,5.00
1980/09/24,1.90,15.50,20.00,11.00,5.40
1980/09/25,47.80,19.50,24.00,15.00,5.50
1980/09/26,86.00,18.00,21.00,15.00,3.10
1980/09/27,0.00,18.00,22.00,14.00,4.60
1980/09/28,25.00,19.50,24.00,15.00,4.70
1980/09/29,0.00,19.00,25.00,13.00,5.80
1980/09/30,0.20,19.00,25.00,13.00,5.40
1980/10/01,26.00,17.00,20.00,14.00,4.10
1980/10/02,16.70,16.50,19.00,14.00,3.70
1980/10/03,0.00,19.00,26.00,12.00,5.40
1980/10/04,0.00,20.50,28.00,13.00,5.60
1980/10/05,0.00,15.50,20.00,11.00,4.80
1980/10/06,0.00,16.00,23.00,9.00,3.90
1980/10/07,0.00,14.00,19.00,9.00,3.10
1980/10/08,0.00,13.50,19.00,8.00,4.30
1980/10/09,0.00,16.00,23.00,9.00,4.80
1980/10/10,0.00,15.00,20.00,10.00,3.90
1980/10/11,0.00,16.00,20.00,12.00,3.90
1980/10/12,0.00,16.00,20.00,12.00,3.90
1980/10/13,0.00,15.50,20.00,11.00,4.00
1980/10/14,0.00,18.50,25.00,12.00,3.50
1980/10/15,0.00,20.50,26.00,15.00,4.50
1980/10/16,0.00,19.00,23.00,15.00,4.00
1980/10/17,0.00,19.50,22.00,17.00,4.30
1980/10/18,0.00,18.50,21.00,16.00,4.00
1980/10/19,28.70,21.00,26.00,16.00,5.90
1980/10/20,0.00,17.50,21.00,14.00,3.20
1980/10/21,7.50,18.50,21.00,16.00,5.30
1980/10/22,0.00,19.50,27.00,12.00,4.40
1980/10/23,0.00,17.50,21.00,14.00,4.00
1980/10/24,0.00,20.00,25.00,15.00,4.30
1980/10/25,0.00,19.00,24.00,14.00,5.40
1980/10/26,0.00,21.00,29.00,13.00,5.40
1980/10/27,0.00,17.50,21.00,14.00,5.70
1980/10/28,18.00,18.00,22.00,14.00,4.90
1980/10/29,8.40,18.00,22.00,14.00,4.60
1980/10/30,0.00,16.50,20.00,13.00,3.90
1980/10/31,0.00,17.50,21.00,14.00,4.60
1980/11/01,0.00,15.00,21.00,9.00,6.00
1980/11/02,0.00,18.00,25.00,11.00,6.00
1980/11/03,0.00,16.00,20.00,12.00,6.30
1980/11/04,0.00,14.00,19.00,9.00,6.20
1980/11/05,0.00,14.50,18.00,11.00,6.10
1980/11/06,0.00,15.00,20.00,10.00,5.30
1980/11/07,0.00,19.00,24.00,14.00,4.60
1980/11/08,0.00,16.00,20.00,12.00,5.30
1980/11/09,0.00,17.50,25.00,10.00,5.30
1980/11/10,0.00,16.50,21.00,12.00,5.80
1980/11/11,0.00,14.50,20.00,9.00,5.00
1980/11/12,0.00,14.50,20.00,9.00,5.70
1980/11/13,0.00,16.00,24.00,8.00,6.00
1980/11/14,0.00,14.00,18.00,10.00,3.90
1980/11/15,0.00,16.00,19.00,13.00,4.00
1980/11/16,0.00,16.00,19.00,13.00,4.80
1980/11/17,0.00,16.00,19.00,13.00,5.00
1980/11/18,0.00,14.50,18.00,11.00,3.10
1980/11/19,0.00,18.00,25.00,11.00,6.90
1980/11/20,0.00,14.50,18.00,11.00,4.00
1980/11/21,0.00,17.50,23.00,12.00,5.20
1980/11/22,0.00,18.00,25.00,11.00,5.30
1980/11/23,0.00,16.00,20.00,12.00,4.90
1980/11/24,0.00,15.50,18.00,13.00,3.60
1980/11/25,0.00,15.50,20.00,11.00,4.00
1980/11/26,0.00,18.50,25.00,12.00,5.20
1980/11/27,0.00,19.00,23.00,15.00,5.40
1980/11/28,0.00,16.50,23.00,10.00,5.90
1980/11/29,0.00,13.50,18.00,9.00,4.00
1980/11/30,0.00,16.00,20.00,12.00,5.10
1980/12/01,0.00,18.00,24.00,12.00,4.40
1980/12/02,0.00,19.00,25.00,13.00,5.00
1980/12/03,0.00,17.50,22.00,13.00,5.10
1980/12/04,0.00,15.50,22.00,9.00,4.80
1980/12/05,0.00,17.50,25.00,10.00,4.60
1980/12/06,0.00,18.00,25.00,11.00,5.00
1980/12/07,0.00,15.00,19.00,11.00,4.80
1980/12/08,0.00,18.00,24.00,12.00,4.10
1980/12/09,0.00,17.00,24.00,10.00,5.20
1980/12/10,0.00,16.00,22.00,10.00,4.20
1980/12/11,0.00,17.00,20.00,14.00,4.00
1980/12/12,0.00,16.50,24.00,9.00,4.70
1980/12/13,0.00,17.00,25.00,9.00,5.90
1980/12/14,0.00,15.00,22.00,8.00,5.10
1980/12/15,0.00,15.00,19.00,11.00,5.00
1980/12/16,0.00,16.50,24.00,9.00,5.70
1980/12/17,0.00,16.00,21.00,11.00,5.70
1980/12/18,0.00,14.00,23.00,5.00,5.10
1980/12/19,0.00,16.00,25.00,7.00,5.00
1980/12/20,0.00,14.00,20.00,8.00,5.10
1980/12/21,0.00,13.50,20.00,7.00,5.20
1980/12/22,0.00,13.00,20.00,6.00,4.50
1980/12/23,0.00,17.50,25.00,10.00,4.90
1980/12/24,0.00,18.50,25.00,12.00,5.50
1980/12/25,0.00,15.50,20.00,11.00,4.20
1980/12/26,0.00,15.00,23.00,7.00,4.90
1980/12/27,0.00,16.50,25.00,8.00,5.40
1980/12/28,0.00,14.00,18.00,10.00,3.20
1980/12/29,0.00,18.00,24.00,12.00,5.30
1980/12/30,0.00,13.00,20.00,6.00,4.80
1980/12/31,0.00,12.50,20.00,5.00,5.20
1981/01/01,0.00,15.50,23.00,8.00,6.50
1981/01/02,0.00,13.50,22.00,5.00,6.40
1981/01/03,0.00,13.00,22.00,4.00,4.00
1981/01/04,0.00,11.50,17.00,6.00,4.90
1981/01/05,0.00,12.00,18.00,6.00,3.70
1981/01/06,0.00,16.00,23.00,9.00,6.30
1981/01/07,0.00,15.00,20.00,10.00,5.40
1981/01/08,0.00,17.50,24.00,11.00,5.10
1981/01/09,0.00,18.50,25.00,12.00,5.10
1981/01/10,0.00,16.50,23.00,10.00,5.00
1981/01/11,0.00,15.50,22.00,9.00,5.10
1981/01/12,0.00,15.00,21.00,9.00,5.00
1981/01/13,0.00,14.00,20.00,8.00,5.00
1981/01/14,0.00,14.50,22.00,7.00,5.20
1981/01/15,0.00,15.50,21.00,10.00,4.90
1981/01/16,0.00,16.50,23.00,10.00,6.10
1981/01/17,3.00,14.50,18.00,11.00,4.10
1981/01/18,5.00,14.00,18.00,10.00,3.90
1981/01/19,0.00,12.00,15.00,9.00,3.00
1981/01/20,0.00,13.50,19.00,8.00,3.40
1981/01/21,0.00,14.00,20.00,8.00,4.00
1981/01/22,0.30,13.00,18.00,8.00,5.00
1981/01/23,0.00,12.50,17.00,8.00,3.30
1981/01/24,0.00,13.00,21.00,5.00,4.10
1981/01/25,0.00,14.00,21.00,7.00,5.00
1981/01/26,0.00,15.00,21.00,9.00,5.10
1981/01/27,0.00,15.50,22.00,9.00,5.40
1981/01/28,0.00,15.50,23.00,8.00,6.00
1981/01/29,0.00,15.50,22.00,9.00,4.90
1981/01/30,0.00,18.00,26.00,10.00,6.50
1981/01/31,0.00,14.50,18.00,11.00,4.70
1981/02/01,0.00,13.50,18.00,9.00,3.90
1981/02/02,0.00,18.00,25.00,11.00,5.10
1981/02/03,0.00,16.00,22.00,10.00,5.00
1981/02/04,0.00,15.00,22.00,8.00,5.80
1981/02/05,0.00,17.00,23.00,11.00,5.20
1981/02/06,0.00,17.00,23.00,11.00,6.00
1981/02/07,0.00,16.00,19.00,13.00,5.00
1981/02/08,0.00,18.50,25.00,12.00,6.20
1981/02/09,0.00,19.50,26.00,13.00,6.80
1981/02/10,0.00,19.50,26.00,13.00,6.20
1981/02/11,0.00,18.50,25.00,12.00,6.50
1981/02/12,0.00,15.00,20.00,10.00,5.10
1981/02/13,0.00,15.50,23.00,8.00,5.10
1981/02/14,0.00,14.50,20.00,9.00,5.00
1981/02/15,0.00,14.50,21.00,8.00,6.00
1981/02/16,0.00,12.00,16.00,8.00,3.20
1981/02/17,0.00,12.00,18.00,6.00,5.30
1981/02/18,0.00,14.50,19.00,10.00,5.00
1981/02/19,0.00,18.00,26.00,10.00,6.10
1981/02/20,0.00,14.00,20.00,8.00,5.50
1981/02/21,4.50,18.00,27.00,9.00,6.80
1981/02/22,48.00,19.00,27.00,11.00,6.30
1981/02/23,21.00,19.50,28.00,11.00,6.80
1981/02/24,7.70,16.00,22.00,10.00,5.40
1981/02/25,0.00,16.50,23.00,10.00,5.30
1981/02/26,0.00,18.50,25.00,12.00,6.00
1981/02/27,0.00,16.50,22.00,11.00,5.90
1981/02/28,0.00,18.00,28.00,8.00,6.30
1981/03/01,0.00,20.00,28.00,12.00,6.00
1981/03/02,0.00,22.00,29.00,15.00,6.10
1981/03/03,0.00,20.50,27.00,14.00,8.20
1981/03/04,0.00,19.50,26.00,13.00,7.40
1981/03/05,0.00,18.50,22.00,15.00,6.20
1981/03/06,0.00,19.00,27.00,11.00,6.40
1981/03/07,0.40,20.50,27.00,14.00,6.00
1981/03/08,0.00,18.50,24.00,13.00,5.10
1981/03/09,0.00,20.00,26.00,14.00,5.80
1981/03/10,0.00,19.50,26.00,13.00,6.10
1981/03/11,0.00,20.00,25.00,15.00,6.00
1981/03/12,0.00,15.00,21.00,9.00,6.40
1981/03/13,0.00,19.00,27.00,11.00,6.40
1981/03/14,0.00,20.00,27.00,13.00,6.20
1981/03/15,4.30,18.50,28.00,9.00,6.30
1981/03/16,0.00,18.50,23.00,14.00,6.50
1981/03/17,0.00,18.50,24.00,13.00,7.80
1981/03/18,0.00,19.00,26.00,12.00,5.70
1981/03/19,0.00,17.50,22.00,13.00,6.40
1981/03/20,0.00,18.00,27.00,9.00,7.10
1981/03/21,0.00,18.50,26.00,11.00,6.90
1981/03/22,0.00,19.50,28.00,11.00,2.40
1981/03/23,0.00,19.50,26.00,13.00,7.10
1981/03/24,0.00,18.50,27.00,10.00,6.80
1981/03/25,0.00,19.50,27.00,12.00,6.10
1981/03/26,0.00,17.00,22.00,12.00,4.90
1981/03/27,0.00,20.50,28.00,13.00,6.00
1981/03/28,0.00,20.50,28.00,13.00,6.20
1981/03/29,0.00,21.00,28.00,14.00,7.00
1981/03/30,0.00,21.50,29.00,14.00,6.90
1981/03/31,0.00,22.50,30.00,15.00,7.90
1981/04/01,0.00,23.50,31.00,16.00,7.60
1981/04/02,0.00,21.50,30.00,13.00,7.30
1981/04/03,0.00,21.50,30.00,13.00,6.80
1981/04/04,0.00,23.00,32.00,14.00,8.10
1981/04/05,0.00,20.00,32.00,8.00,7.10
1981/04/06,0.00,16.00,22.00,10.00,7.10
1981/04/07,0.00,18.50,28.00,9.00,6.60
1981/04/08,0.00,21.00,30.00,12.00,7.40
1981/04/09,0.00,19.00,28.00,10.00,7.70
1981/04/10,0.00,19.50,27.00,12.00,7.80
1981/04/11,0.00,18.50,27.00,10.00,8.80
1981/04/12,1.90,20.50,28.00,13.00,7.70
1981/04/13,1.40,20.00,27.00,13.00,5.90
1981/04/14,1.50,19.00,26.00,12.00,5.50
1981/04/15,0.00,18.50,25.00,12.00,5.80
1981/04/16,0.00,18.00,25.00,11.00,6.00
1981/04/17,2.60,18.50,26.00,11.00,5.80